This is the latest recevied weather packets stored in our database for station/object MIDVIL-WX. If no packets are shown the sender has not sent any weather packets the latest 10 day(s).
| Time | Temp. | Humidity | Pressure | Rain* | Wind** | Luminosity | Snow |
|---|---|---|---|---|---|---|---|
| 1778119249 | 7.22° C | 51% | 987.9 hPa | 0 mm | - | - | - |
| 1778118326 | 6.67° C | 49% | 987.5 hPa | 0 mm | - | - | - |
| 1778117442 | 7.22° C | 49% | 987.5 hPa | 0 mm | - | - | - |
| 1778116526 | 7.78° C | 49% | 987.5 hPa | 0 mm | - | - | - |
| 1778115650 | 7.78° C | 49% | 987.5 hPa | 0 mm | - | - | - |
| 1778114726 | 7.78° C | 40% | 988.3 hPa | 0 mm | - | - | - |
| 1778113843 | 8.33° C | 42% | 988.2 hPa | 0 mm | - | - | - |
| 1778112925 | 8.89° C | 42% | 988.2 hPa | 0 mm | - | - | - |
| 1778112058 | 9.44° C | 42% | 988.2 hPa | 0 mm | - | - | - |
| 1778111126 | 10° C | 37% | 986.8 hPa | 0 mm | - | - | - |
| 1778110249 | 10° C | 38% | 987.2 hPa | 0 mm | - | - | - |
| 1778109326 | 10.56° C | 38% | 987.2 hPa | 0 mm | - | - | - |
| 1778108453 | 10.56° C | 38% | 987.2 hPa | 0 mm | - | - | - |
| 1778107526 | 10.56° C | 35% | 987.4 hPa | 0 mm | - | - | - |
| 1778106640 | 10.56° C | 36% | 987.7 hPa | 0 mm | - | - | - |
| 1778105726 | 11.11° C | 36% | 987.7 hPa | 0 mm | - | - | - |
| 1778104857 | 11.11° C | 36% | 987.7 hPa | 0 mm | - | - | - |
| 1778103925 | 11.11° C | 34% | 987.7 hPa | 0 mm | - | - | - |
| 1778103045 | 11.67° C | 32% | 987.8 hPa | 0 mm | - | - | - |
| 1778102125 | 11.67° C | 32% | 987.8 hPa | 0 mm | - | - | - |
| 1778101255 | 11.67° C | 32% | 987.8 hPa | 0 mm | - | - | - |
| 1778100327 | 11.67° C | 34% | 987.6 hPa | 0 mm | - | - | - |
| 1778099445 | 11.67° C | 34% | 987.1 hPa | 0 mm | - | - | - |
| 1778098531 | 11.67° C | 34% | 987.1 hPa | 0 mm | - | - | - |
| 1778097656 | 11.67° C | 34% | 986.6 hPa | 0 mm | - | - | - |
* Rain latest hour (hover to see other rain measurements)
** Current wind speed in m/s (hover to see current wind gust speed)